ARG8501 SAEZ-NZAA

Flight info

Callsign ARG8501
Flight time N/A
Altitude 30000
Route GBE1E GBE UT694 IREMO UP664 VIE UT109 SJU/N0494F320 UT109 GAL UP664 NAS/N0492F310 DCT 56S075W 59S079W 62S085W/N0489F330 64S090W/N0494F320 66S100W 68S110W/N0491F340 69S120W 69S131W 69S134W 65S160W 61S170W/N0482F360 56S179E 51S175E/N0487F370 DCT SW Y477 CH Y175 OPABI Q277 DAVEE
Aircraft B77W/H-SDE1E2E3FGHIJ2J3J4J5M1RWXY/LB1D1

Departure

Time 2026-05-08 04:38
Airport Ezeiza International Airport - Ministro Pistarini (SAEZ)

Arrival

Time N/A
Airport Auckland International Airport (NZAA)
Time Latitude Longitude Altitude Speed Heading
2026-05-08 04:09 -34.81644 -58.54362 80 ft 0 kts 12°
2026-05-08 04:30 -34.81646 -58.54362 80 ft 2 kts 12°
2026-05-08 04:30 -34.81671 -58.54367 80 ft 4 kts
2026-05-08 04:31 -34.81698 -58.54372 80 ft 4 kts 11°
2026-05-08 04:31 -34.81724 -58.54378 85 ft 4 kts 11°
2026-05-08 04:31 -34.81749 -58.54383 80 ft 4 kts 14°
2026-05-08 04:31 -34.81767 -58.54394 80 ft 4 kts 86°
2026-05-08 04:32 -34.81761 -58.54424 86 ft 4 kts 107°
2026-05-08 04:32 -34.81757 -58.54440 80 ft 0 kts 96°
2026-05-08 04:33 -34.81762 -58.54378 85 ft 18 kts 95°
2026-05-08 04:34 -34.81782 -58.54147 80 ft 28 kts 96°
2026-05-08 04:34 -34.81734 -58.53926 90 ft 28 kts 61°
2026-05-08 04:34 -34.81756 -58.53736 80 ft 26 kts 143°
2026-05-08 04:34 -34.81894 -58.53599 84 ft 26 kts 119°
2026-05-08 04:35 -34.81952 -58.53392 85 ft 26 kts 101°
2026-05-08 04:35 -34.81993 -58.53179 85 ft 26 kts 104°
2026-05-08 04:35 -34.82035 -58.52966 85 ft 26 kts 104°
2026-05-08 04:35 -34.82076 -58.52752 84 ft 26 kts 102°
2026-05-08 04:36 -34.82126 -58.52541 85 ft 26 kts 104°
2026-05-08 04:36 -34.82164 -58.52326 81 ft 26 kts 102°
2026-05-08 04:36 -34.82204 -58.52115 80 ft 26 kts 103°
2026-05-08 04:36 -34.82245 -58.51901 82 ft 26 kts 103°
2026-05-08 04:37 -34.82377 -58.51799 84 ft 26 kts 188°
2026-05-08 04:37 -34.82503 -58.51929 87 ft 30 kts 263°
2026-05-08 04:37 -34.82444 -58.52335 88 ft 80 kts 283°
2026-05-08 04:37 -34.82270 -58.53313 89 ft 154 kts 282°
2026-05-08 04:38 -34.81994 -58.54830 94 ft 207 kts 283°
2026-05-08 04:38 -34.81640 -58.56556 773 ft 204 kts 282°
2026-05-08 04:38 -34.81315 -58.58214 1668 ft 203 kts 281°
2026-05-08 04:38 -34.81042 -58.59966 1999 ft 222 kts 270°
2026-05-08 04:39 -34.81428 -58.61765 2505 ft 225 kts 240°
2026-05-08 04:39 -34.82404 -58.63246 3252 ft 223 kts 230°
2026-05-08 04:39 -34.83480 -58.64616 3932 ft 225 kts 228°
2026-05-08 04:39 -34.84571 -58.65999 4583 ft 228 kts 228°
2026-05-08 04:40 -34.85670 -58.67418 5158 ft 233 kts 228°
2026-05-08 04:40 -34.86787 -58.68854 5806 ft 232 kts 225°
2026-05-08 04:40 -34.88095 -58.69969 6253 ft 239 kts 202°
2026-05-08 04:40 -34.89741 -58.70375 6838 ft 243 kts 187°
2026-05-08 04:41 -34.91430 -58.70634 7250 ft 247 kts 189°
2026-05-08 04:41 -34.93176 -58.70489 7704 ft 258 kts 163°
2026-05-08 04:41 -34.94647 -58.69179 8148 ft 273 kts 127°
2026-05-08 04:41 -34.95402 -58.67030 8620 ft 280 kts 109°
2026-05-08 04:42 -34.96223 -58.64910 8942 ft 276 kts 135°
2026-05-08 04:42 -34.97417 -58.63104 9318 ft 282 kts 122°
2026-05-08 04:42 -34.98139 -58.60842 9813 ft 288 kts 106°
2026-05-08 04:42 -34.98622 -58.58473 10364 ft 287 kts 112°
2026-05-08 04:43 -34.99623 -58.56388 10726 ft 287 kts 136°
2026-05-08 04:43 -35.01127 -58.54783 11262 ft 286 kts 147°
2026-05-08 04:43 -35.02626 -58.53241 11701 ft 291 kts 127°
2026-05-08 04:43 -35.03528 -58.51001 12090 ft 296 kts 116°
2026-05-08 04:44 -35.04723 -58.48988 12396 ft 295 kts 148°
2026-05-08 04:44 -35.06590 -58.48087 12854 ft 289 kts 181°
2026-05-08 04:44 -35.08592 -58.48438 13064 ft 296 kts 201°
2026-05-08 04:44 -35.10619 -58.49236 13236 ft 317 kts 198°
2026-05-08 04:45 -35.12843 -58.49885 13401 ft 340 kts 193°
2026-05-08 04:45 -35.15263 -58.50309 13564 ft 363 kts 187°
2026-05-08 04:45 -35.17828 -58.50518 13748 ft 385 kts 184°
2026-05-08 04:45 -35.20554 -58.50548 14189 ft 397 kts 181°
2026-05-08 04:46 -35.23353 -58.50453 14748 ft 407 kts 179°
2026-05-08 04:46 -35.26202 -58.50281 15384 ft 413 kts 178°
2026-05-08 04:46 -35.29093 -58.50068 16047 ft 419 kts 177°
2026-05-08 04:46 -35.32020 -58.49835 16678 ft 425 kts 176°
2026-05-08 04:47 -35.35000 -58.49596 17260 ft 431 kts 176°
2026-05-08 04:47 -35.38016 -58.49357 17837 ft 437 kts 176°
2026-05-08 04:47 -35.41077 -58.49119 18416 ft 443 kts 176°
2026-05-08 04:47 -35.44164 -58.48880 18880 ft 452 kts 176°
2026-05-08 04:48 -35.47342 -58.48635 19321 ft 461 kts 176°
2026-05-08 04:48 -35.50569 -58.48387 19809 ft 468 kts 176°
2026-05-08 04:48 -35.53853 -58.48134 20263 ft 476 kts 176°
2026-05-08 04:48 -35.57184 -58.47878 20690 ft 484 kts 176°
2026-05-08 04:49 -35.60572 -58.47618 21111 ft 491 kts 176°
2026-05-08 04:49 -35.64005 -58.47360 21519 ft 498 kts 176°
2026-05-08 04:49 -35.67501 -58.47091 21880 ft 507 kts 176°
2026-05-08 04:49 -35.71057 -58.46807 22307 ft 512 kts 178°
2026-05-08 04:50 -35.74608 -58.47022 22472 ft 516 kts 194°
2026-05-08 04:50 -35.77940 -58.48435 22746 ft 513 kts 213°
2026-05-08 04:50 -35.80956 -58.50743 23159 ft 509 kts 219°
2026-05-08 04:50 -35.83942 -58.53145 23575 ft 515 kts 219°
2026-05-08 04:51 -35.86971 -58.55563 24020 ft 520 kts 219°
2026-05-08 04:51 -35.90040 -58.57974 24512 ft 525 kts 219°
2026-05-08 04:51 -35.93136 -58.60382 24984 ft 528 kts 218°
2026-05-08 04:51 -35.96259 -58.62791 25444 ft 531 kts 218°
2026-05-08 04:52 -35.99397 -58.65211 25857 ft 533 kts 218°
2026-05-08 04:52 -36.02556 -58.67650 26253 ft 536 kts 218°
2026-05-08 04:52 -36.05734 -58.70101 26606 ft 541 kts 218°
2026-05-08 04:52 -36.08902 -58.72545 27005 ft 543 kts 218°
2026-05-08 04:53 -36.12120 -58.75032 27428 ft 545 kts 218°
2026-05-08 04:53 -36.15331 -58.77519 27862 ft 546 kts 218°
2026-05-08 04:53 -36.18571 -58.80032 28245 ft 547 kts 218°
2026-05-08 04:53 -36.21801 -58.82543 28580 ft 550 kts 218°
2026-05-08 04:54 -36.25050 -58.85071 28913 ft 552 kts 218°
2026-05-08 04:54 -36.28261 -58.87571 29238 ft 553 kts 218°
2026-05-08 04:54 -36.31557 -58.90140 29582 ft 553 kts 218°
2026-05-08 04:54 -36.34775 -58.92649 29593 ft 552 kts 218°
2026-05-08 04:55 -36.41252 -58.97703 29609 ft 547 kts 218°
2026-05-08 04:55 -36.47676 -59.02731 29611 ft 544 kts 218°
2026-05-08 04:56 -36.52994 -59.06904 29613 ft 543 kts 218°
2026-05-08 04:56 -36.59368 -59.11916 29610 ft 541 kts 218°
2026-05-08 04:57 -36.65723 -59.16916 29604 ft 540 kts 217°
2026-05-08 04:57 -36.72065 -59.21917 29600 ft 539 kts 217°
2026-05-08 04:58 -36.78387 -59.26915 29600 ft 537 kts 217°
2026-05-08 04:58 -36.84710 -59.31924 29600 ft 537 kts 217°
2026-05-08 04:59 -36.91021 -59.36933 29600 ft 537 kts 217°
2026-05-08 04:59 -36.97334 -59.41953 29600 ft 537 kts 217°
2026-05-08 05:00 -37.03596 -59.46941 29601 ft 536 kts 217°
2026-05-08 05:00 -37.09896 -59.51969 29601 ft 536 kts 218°
2026-05-08 05:01 -37.16189 -59.57008 29602 ft 536 kts 218°
2026-05-08 05:01 -37.22438 -59.62118 29597 ft 536 kts 219°
2026-05-08 05:02 -37.28581 -59.67352 29602 ft 536 kts 219°
2026-05-08 05:02 -37.34743 -59.72626 29607 ft 536 kts 219°
2026-05-08 05:03 -37.40925 -59.77887 29607 ft 536 kts 219°
2026-05-08 05:03 -37.47118 -59.83159 29621 ft 537 kts 219°
2026-05-08 05:04 -37.53310 -59.88435 29631 ft 537 kts 219°
2026-05-08 05:04 -37.59457 -59.93689 29630 ft 537 kts 219°
2026-05-08 05:05 -37.65642 -59.98988 29636 ft 537 kts 219°
2026-05-08 05:05 -37.71819 -60.04290 29643 ft 534 kts 219°
2026-05-08 05:06 -37.77952 -60.09563 29645 ft 533 kts 219°
2026-05-08 05:06 -37.84062 -60.14832 29656 ft 535 kts 219°
2026-05-08 05:07 -37.90215 -60.20143 29655 ft 535 kts 219°
2026-05-08 05:07 -37.96364 -60.25464 29664 ft 534 kts 219°
2026-05-08 05:08 -38.02500 -60.30785 29677 ft 534 kts 219°
2026-05-08 05:08 -38.08620 -60.36105 29684 ft 533 kts 219°
2026-05-08 05:09 -38.14734 -60.41429 29685 ft 531 kts 219°
2026-05-08 05:09 -38.20850 -60.46683 29695 ft 530 kts 218°
2026-05-08 05:10 -38.30015 -60.54405 29701 ft 527 kts 218°
2026-05-08 05:11 -38.36092 -60.59561 29692 ft 524 kts 218°
2026-05-08 05:11 -38.42141 -60.64721 29596 ft 521 kts 217°
2026-05-08 05:12 -38.48138 -60.69845 29515 ft 517 kts 217°
2026-05-08 05:12 -38.54095 -60.74944 29504 ft 514 kts 217°
2026-05-08 05:13 -38.60024 -60.80029 29523 ft 512 kts 217°
2026-05-08 05:13 -38.65879 -60.85061 29541 ft 509 kts 217°
2026-05-08 05:14 -38.71750 -60.90120 29569 ft 508 kts 217°
2026-05-08 05:14 -38.77611 -60.95176 29582 ft 505 kts 216°
2026-05-08 05:15 -38.83431 -61.00207 29597 ft 503 kts 216°
2026-05-08 05:15 -38.89226 -61.05228 29608 ft 502 kts 216°
2026-05-08 05:16 -38.95002 -61.10241 29623 ft 501 kts 216°
2026-05-08 05:16 -39.00729 -61.15224 29637 ft 499 kts 216°
2026-05-08 05:17 -39.06477 -61.20233 29641 ft 498 kts 216°
2026-05-08 05:17 -39.12213 -61.25244 29648 ft 497 kts 216°
2026-05-08 05:18 -39.17926 -61.30243 29653 ft 495 kts 216°
2026-05-08 05:18 -39.23603 -61.35220 29657 ft 494 kts 216°
2026-05-08 05:19 -39.29291 -61.40219 29657 ft 493 kts 215°
2026-05-08 05:19 -39.34925 -61.45177 29664 ft 491 kts 215°
2026-05-08 05:20 -39.40566 -61.50154 29666 ft 490 kts 215°
2026-05-08 05:20 -39.46189 -61.55124 29666 ft 489 kts 214°
2026-05-08 05:21 -39.51800 -61.60093 29664 ft 488 kts 214°
2026-05-08 05:21 -39.57396 -61.65059 29666 ft 487 kts 214°
2026-05-08 05:22 -39.62976 -61.70020 29666 ft 485 kts 214°
2026-05-08 05:22 -39.68540 -61.74976 29659 ft 484 kts 214°
2026-05-08 05:23 -39.74088 -61.79932 29654 ft 483 kts 214°
2026-05-08 05:23 -39.79594 -61.84857 29658 ft 482 kts 213°
2026-05-08 05:24 -39.85116 -61.89804 29656 ft 481 kts 213°
2026-05-08 05:24 -39.90449 -61.95082 29667 ft 481 kts 218°
2026-05-08 05:25 -39.95584 -62.00621 29665 ft 481 kts 218°
2026-05-08 05:25 -40.00746 -62.06201 29665 ft 481 kts 218°
2026-05-08 05:26 -40.05918 -62.11774 29665 ft 481 kts 218°
2026-05-08 05:26 -40.11060 -62.17310 29672 ft 481 kts 218°
2026-05-08 05:27 -40.16220 -62.22876 29716 ft 480 kts 218°
2026-05-08 05:27 -40.21378 -62.28453 29731 ft 480 kts 218°
2026-05-08 05:28 -40.26516 -62.34023 29733 ft 479 kts 218°
2026-05-08 05:28 -40.31615 -62.39557 29733 ft 477 kts 218°
2026-05-08 05:29 -40.36725 -62.45115 29732 ft 476 kts 218°
2026-05-08 05:29 -40.41816 -62.50663 29732 ft 475 kts 218°
2026-05-08 05:30 -40.46899 -62.56218 29728 ft 474 kts 218°
2026-05-08 05:30 -40.51927 -62.61721 29724 ft 472 kts 218°
2026-05-08 05:31 -40.56966 -62.67250 29723 ft 471 kts 218°
2026-05-08 05:31 -40.61791 -62.72555 29721 ft 469 kts 218°
2026-05-08 05:32 -40.66799 -62.78067 29722 ft 469 kts 219°
2026-05-08 05:32 -40.71768 -62.83556 29721 ft 468 kts 218°
2026-05-08 05:33 -40.76749 -62.89058 29719 ft 467 kts 218°
2026-05-08 05:33 -40.81748 -62.94599 29722 ft 466 kts 219°
2026-05-08 05:34 -40.87005 -62.99505 29724 ft 463 kts 209°
2026-05-08 05:34 -40.92796 -63.03180 29720 ft 462 kts 200°
2026-05-08 05:35 -40.98832 -63.06097 29723 ft 462 kts 200°
2026-05-08 05:35 -41.04856 -63.08968 29722 ft 461 kts 200°
2026-05-08 05:36 -41.10911 -63.11892 29724 ft 462 kts 200°
2026-05-08 05:36 -41.16923 -63.14834 29722 ft 461 kts 200°
2026-05-08 05:37 -41.22936 -63.17784 29723 ft 460 kts 200°
2026-05-08 05:37 -41.28951 -63.20741 29721 ft 461 kts 200°
2026-05-08 05:38 -41.34933 -63.23692 29728 ft 460 kts 200°
2026-05-08 05:38 -41.40927 -63.26647 29732 ft 460 kts 200°
2026-05-08 05:39 -41.46930 -63.29600 29727 ft 459 kts 200°
2026-05-08 05:39 -41.52903 -63.32563 29732 ft 458 kts 200°
2026-05-08 05:40 -41.58922 -63.35543 29755 ft 458 kts 200°
2026-05-08 05:40 -41.64855 -63.38510 29740 ft 457 kts 200°
2026-05-08 05:41 -41.70794 -63.41459 29754 ft 455 kts 200°
2026-05-08 05:41 -41.76738 -63.44426 29756 ft 456 kts 200°
2026-05-08 05:42 -41.82687 -63.47391 29760 ft 454 kts 200°
2026-05-08 05:42 -41.88593 -63.50348 29765 ft 454 kts 200°
2026-05-08 05:43 -41.94503 -63.53323 29768 ft 453 kts 200°
2026-05-08 05:43 -42.00400 -63.56307 29761 ft 453 kts 200°
2026-05-08 05:44 -42.06311 -63.59262 29779 ft 454 kts 200°
2026-05-08 05:44 -42.12245 -63.62261 29789 ft 454 kts 201°
2026-05-08 05:45 -42.18170 -63.65280 29802 ft 455 kts 200°
2026-05-08 05:45 -42.24073 -63.68276 29808 ft 453 kts 201°
2026-05-08 05:46 -42.29963 -63.71265 29809 ft 453 kts 200°
2026-05-08 05:46 -42.35896 -63.74268 29812 ft 456 kts 201°
2026-05-08 05:47 -42.41820 -63.77286 29817 ft 456 kts 200°
2026-05-08 05:47 -42.47744 -63.80315 29827 ft 456 kts 201°
2026-05-08 05:48 -42.53686 -63.83372 29822 ft 457 kts 201°
2026-05-08 05:48 -42.59626 -63.86419 29833 ft 457 kts 201°
2026-05-08 05:49 -42.65594 -63.89482 29835 ft 459 kts 201°
2026-05-08 05:49 -42.71577 -63.92574 29836 ft 461 kts 201°
2026-05-08 05:50 -42.77605 -63.95695 29845 ft 462 kts 201°
2026-05-08 05:50 -42.83610 -63.98799 29849 ft 464 kts 201°
2026-05-08 05:51 -42.89633 -64.01919 29843 ft 464 kts 201°
2026-05-08 05:51 -42.95644 -64.05038 29839 ft 461 kts 201°
2026-05-08 05:52 -43.01646 -64.08165 29854 ft 463 kts 201°
2026-05-08 05:52 -43.07704 -64.11331 29850 ft 465 kts 201°
2026-05-08 05:53 -43.13732 -64.14485 29851 ft 466 kts 201°
2026-05-08 05:53 -43.19821 -64.17680 29850 ft 468 kts 201°
2026-05-08 05:54 -43.25893 -64.20867 29857 ft 469 kts 201°
2026-05-08 05:54 -43.31967 -64.24063 29862 ft 471 kts 201°
2026-05-08 05:55 -43.38086 -64.27292 29861 ft 472 kts 201°
2026-05-08 05:55 -43.44226 -64.30542 29862 ft 473 kts 201°
2026-05-08 05:56 -43.49330 -64.33251 29861 ft 474 kts 202°
2026-05-08 05:56 -43.55497 -64.36562 29863 ft 475 kts 202°
2026-05-08 05:57 -43.61634 -64.39872 29863 ft 476 kts 202°
2026-05-08 05:57 -43.67816 -64.43210 29859 ft 476 kts 202°
2026-05-08 05:58 -43.73992 -64.46554 29862 ft 476 kts 202°
2026-05-08 05:58 -43.80112 -64.49875 29860 ft 476 kts 202°
2026-05-08 05:59 -43.86291 -64.53224 29861 ft 476 kts 202°
2026-05-08 05:59 -43.92473 -64.56588 29868 ft 476 kts 202°
2026-05-08 06:00 -43.98613 -64.59941 29871 ft 475 kts 202°
2026-05-08 06:00 -44.04783 -64.63312 29866 ft 478 kts 202°
2026-05-08 06:01 -44.10955 -64.66695 29874 ft 480 kts 202°
2026-05-08 06:01 -44.17179 -64.70114 29876 ft 478 kts 202°
2026-05-08 06:02 -44.23264 -64.73461 29872 ft 463 kts 202°
2026-05-08 06:02 -44.29233 -64.76758 29889 ft 467 kts 202°
2026-05-08 06:03 -44.35299 -64.80116 29888 ft 469 kts 202°
2026-05-08 06:03 -44.41341 -64.83462 29889 ft 469 kts 203°
2026-05-08 06:04 -44.47449 -64.86853 29889 ft 469 kts 203°
2026-05-08 06:04 -44.53514 -64.90236 29898 ft 470 kts 203°
2026-05-08 06:05 -44.59587 -64.93621 29898 ft 471 kts 203°
2026-05-08 06:05 -44.65662 -64.97017 29908 ft 472 kts 203°
2026-05-08 06:06 -44.71757 -65.00438 29905 ft 472 kts 203°
2026-05-08 06:06 -44.77880 -65.03876 29921 ft 473 kts 203°
2026-05-08 06:07 -44.83970 -65.07306 29918 ft 473 kts 203°
2026-05-08 06:07 -44.90109 -65.10771 29926 ft 474 kts 203°
2026-05-08 06:08 -44.96210 -65.14224 29930 ft 475 kts 204°
2026-05-08 06:08 -45.02340 -65.17700 29940 ft 476 kts 204°
2026-05-08 06:09 -45.08504 -65.21195 29945 ft 477 kts 204°
2026-05-08 06:09 -45.14696 -65.24703 29950 ft 477 kts 204°
2026-05-08 06:10 -45.20867 -65.28215 29955 ft 478 kts 204°
2026-05-08 06:10 -45.27038 -65.31746 29986 ft 479 kts 204°
2026-05-08 06:11 -45.33212 -65.35280 29995 ft 480 kts 204°
2026-05-08 06:11 -45.39412 -65.38834 30001 ft 480 kts 204°
2026-05-08 06:12 -45.45602 -65.42391 30005 ft 481 kts 204°
2026-05-08 06:12 -45.51799 -65.45961 30005 ft 482 kts 204°
2026-05-08 06:13 -45.57996 -65.49545 30023 ft 482 kts 204°
2026-05-08 06:13 -45.64251 -65.53166 30017 ft 483 kts 204°
2026-05-08 06:14 -45.70460 -65.56770 30019 ft 483 kts 204°
2026-05-08 06:14 -45.76669 -65.60387 30028 ft 483 kts 204°
2026-05-08 06:15 -45.82894 -65.64013 30032 ft 483 kts 204°
2026-05-08 06:15 -45.89120 -65.67655 30047 ft 484 kts 204°
2026-05-08 06:16 -45.95369 -65.71324 30042 ft 484 kts 204°
2026-05-08 06:16 -46.01629 -65.74999 30047 ft 484 kts 204°
2026-05-08 06:17 -46.10962 -65.80503 30055 ft 486 kts 204°
2026-05-08 06:17 -46.17208 -65.84195 30051 ft 485 kts 204°
2026-05-08 06:18 -46.23456 -65.87894 30059 ft 485 kts 204°
2026-05-08 06:18 -46.29710 -65.91586 30056 ft 486 kts 204°
2026-05-08 06:19 -46.35980 -65.95293 30054 ft 487 kts 204°
2026-05-08 06:19 -46.42232 -65.99004 30059 ft 487 kts 204°
2026-05-08 06:20 -46.48534 -66.02760 30058 ft 486 kts 204°
2026-05-08 06:20 -46.54774 -66.06484 30054 ft 486 kts 204°
2026-05-08 06:21 -46.61028 -66.10218 30058 ft 486 kts 204°
2026-05-08 06:21 -46.67275 -66.13962 30063 ft 487 kts 204°
2026-05-08 06:22 -46.73522 -66.17717 30064 ft 487 kts 204°
2026-05-08 06:22 -46.79812 -66.21510 30066 ft 488 kts 204°
2026-05-08 06:23 -46.86074 -66.25292 30065 ft 489 kts 204°
2026-05-08 06:23 -46.92353 -66.29095 30063 ft 489 kts 204°
2026-05-08 06:24 -46.98663 -66.32930 30065 ft 490 kts 204°
2026-05-08 06:24 -47.04960 -66.36763 30065 ft 492 kts 204°
2026-05-08 06:25 -47.11283 -66.40620 30065 ft 492 kts 204°
2026-05-08 06:25 -47.17607 -66.44491 30064 ft 493 kts 204°
2026-05-08 06:26 -47.23962 -66.48389 30070 ft 494 kts 204°
2026-05-08 06:26 -47.30307 -66.52292 30074 ft 495 kts 204°
2026-05-08 06:27 -47.36666 -66.56212 30074 ft 495 kts 204°
2026-05-08 06:27 -47.43018 -66.60141 30073 ft 496 kts 204°
2026-05-08 06:28 -47.49381 -66.64088 30074 ft 496 kts 204°
2026-05-08 06:28 -47.55753 -66.68047 30074 ft 496 kts 204°
2026-05-08 06:29 -47.62092 -66.72000 30075 ft 497 kts 204°
2026-05-08 06:29 -47.68450 -66.75972 30084 ft 496 kts 204°
2026-05-08 06:30 -47.74805 -66.79954 30081 ft 497 kts 204°
2026-05-08 06:30 -47.81214 -66.83979 30086 ft 496 kts 204°
2026-05-08 06:31 -47.87560 -66.87977 30085 ft 496 kts 204°
2026-05-08 06:31 -47.93892 -66.91976 30095 ft 495 kts 204°
2026-05-08 06:32 -48.00201 -66.95970 30092 ft 495 kts 204°
2026-05-08 06:32 -48.06547 -67.00003 30093 ft 497 kts 204°
2026-05-08 06:33 -48.12952 -67.04078 30097 ft 497 kts 204°
2026-05-08 06:33 -48.19303 -67.08133 30098 ft 497 kts 204°
2026-05-08 06:34 -48.25632 -67.12185 30109 ft 496 kts 204°
2026-05-08 06:34 -48.31998 -67.16273 30110 ft 495 kts 204°
2026-05-08 06:35 -48.38323 -67.20343 30112 ft 494 kts 204°
2026-05-08 06:35 -48.44604 -67.24397 30115 ft 494 kts 204°
2026-05-08 06:36 -48.50908 -67.28478 30121 ft 494 kts 204°
2026-05-08 06:36 -48.57230 -67.32579 30123 ft 493 kts 204°
2026-05-08 06:37 -48.63534 -67.36679 30133 ft 493 kts 204°
2026-05-08 06:37 -48.69802 -67.40770 30128 ft 493 kts 204°
2026-05-08 06:38 -48.76134 -67.44912 30139 ft 492 kts 204°
2026-05-08 06:38 -48.82398 -67.49023 30140 ft 492 kts 204°
2026-05-08 06:39 -48.88685 -67.53159 30149 ft 492 kts 204°
2026-05-08 06:39 -48.94965 -67.57302 30188 ft 492 kts 204°
2026-05-08 06:40 -49.01239 -67.61452 30194 ft 492 kts 204°
2026-05-08 06:40 -49.07490 -67.65598 30202 ft 491 kts 204°
2026-05-08 06:41 -49.13746 -67.69760 30219 ft 491 kts 204°
2026-05-08 06:41 -49.20020 -67.73943 30233 ft 491 kts 204°
2026-05-08 06:42 -49.26265 -67.78123 30228 ft 490 kts 204°
2026-05-08 06:42 -49.32546 -67.82317 30241 ft 490 kts 203°
2026-05-08 06:43 -49.38813 -67.86276 30243 ft 489 kts 202°
2026-05-08 06:43 -49.44112 -67.89556 30250 ft 489 kts 202°
2026-05-08 06:44 -49.50412 -67.93485 30240 ft 488 kts 202°
2026-05-08 06:44 -49.56664 -67.97422 30253 ft 487 kts 202°
2026-05-08 06:45 -49.62960 -68.01414 30261 ft 488 kts 202°
2026-05-08 06:45 -49.69213 -68.05385 30264 ft 489 kts 202°
2026-05-08 06:46 -49.75477 -68.09377 30260 ft 486 kts 202°
2026-05-08 06:46 -49.81748 -68.13382 30268 ft 485 kts 202°
2026-05-08 06:47 -49.87983 -68.17374 30268 ft 485 kts 202°
2026-05-08 06:47 -49.94231 -68.21387 30268 ft 486 kts 202°
2026-05-08 06:48 -50.00430 -68.25378 30271 ft 485 kts 202°
2026-05-08 06:48 -50.06671 -68.29405 30276 ft 485 kts 202°
2026-05-08 06:49 -50.12879 -68.33426 30277 ft 484 kts 202°
2026-05-08 06:49 -50.19100 -68.37469 30276 ft 484 kts 202°
2026-05-08 06:50 -50.25322 -68.41518 30277 ft 483 kts 202°
2026-05-08 06:50 -50.31537 -68.45579 30284 ft 482 kts 202°
2026-05-08 06:51 -50.37699 -68.49616 30288 ft 481 kts 202°
2026-05-08 06:51 -50.43873 -68.53671 30295 ft 480 kts 202°
2026-05-08 06:52 -50.50009 -68.57712 30293 ft 479 kts 202°
2026-05-08 06:52 -50.56152 -68.61771 30296 ft 478 kts 202°
2026-05-08 06:53 -50.62279 -68.65831 30295 ft 477 kts 201°
2026-05-08 06:53 -50.68409 -68.69904 30296 ft 476 kts 201°
2026-05-08 06:54 -50.74488 -68.73954 30295 ft 475 kts 201°
2026-05-08 06:54 -50.80590 -68.78032 30559 ft 476 kts 201°
2026-05-08 06:55 -50.83631 -68.80070 31008 ft 474 kts 201°
2026-05-08 06:55 -50.86626 -68.82081 31521 ft 471 kts 201°
2026-05-08 06:55 -50.89643 -68.84112 32039 ft 467 kts 201°
2026-05-08 06:55 -50.92636 -68.86128 32314 ft 468 kts 201°
2026-05-08 06:56 -50.98593 -68.90148 32292 ft 466 kts 201°
2026-05-08 06:56 -51.04549 -68.94178 32296 ft 464 kts 201°
2026-05-08 06:57 -51.10470 -68.98197 32297 ft 464 kts 201°
2026-05-08 06:57 -51.16429 -69.02253 32297 ft 464 kts 201°
2026-05-08 06:58 -51.22335 -69.06283 32294 ft 463 kts 201°
2026-05-08 06:58 -51.28194 -69.10293 32292 ft 463 kts 201°
2026-05-08 06:59 -51.34096 -69.14344 32297 ft 462 kts 201°
2026-05-08 06:59 -51.39991 -69.18403 32293 ft 461 kts 201°
2026-05-08 07:00 -51.45889 -69.22474 32297 ft 460 kts 201°
2026-05-08 07:00 -51.51765 -69.26542 32295 ft 460 kts 201°
2026-05-08 07:01 -51.57617 -69.30607 32296 ft 459 kts 200°
2026-05-08 07:01 -51.63367 -69.35161 32293 ft 461 kts 208°
2026-05-08 07:02 -51.68751 -69.40697 32298 ft 461 kts 209°
2026-05-08 07:02 -51.74193 -69.46349 32293 ft 460 kts 209°
2026-05-08 07:03 -51.79556 -69.51882 32297 ft 459 kts 208°
2026-05-08 07:03 -51.84932 -69.57419 32296 ft 459 kts 208°
2026-05-08 07:04 -51.90291 -69.62951 32296 ft 458 kts 208°
2026-05-08 07:04 -51.95685 -69.68537 32300 ft 458 kts 208°
2026-05-08 07:05 -52.01022 -69.74082 32307 ft 458 kts 208°
2026-05-08 07:05 -52.06371 -69.79651 32311 ft 457 kts 208°
2026-05-08 07:06 -52.11671 -69.85364 32314 ft 457 kts 210°
2026-05-08 07:06 -52.16933 -69.91199 32317 ft 457 kts 210°
2026-05-08 07:07 -52.22180 -69.97034 32325 ft 458 kts 210°
2026-05-08 07:07 -52.27451 -70.02883 32332 ft 458 kts 210°
2026-05-08 07:08 -52.32734 -70.08748 32333 ft 457 kts 210°
2026-05-08 07:08 -52.37965 -70.14579 32339 ft 457 kts 210°
2026-05-08 07:09 -52.43230 -70.20465 32342 ft 457 kts 210°
2026-05-08 07:09 -52.48445 -70.26309 32351 ft 456 kts 210°
2026-05-08 07:10 -52.53684 -70.32196 32358 ft 456 kts 210°
2026-05-08 07:10 -52.58944 -70.38128 32362 ft 455 kts 210°
2026-05-08 07:11 -52.64140 -70.44005 32382 ft 454 kts 210°
2026-05-08 07:11 -52.69346 -70.49910 32389 ft 454 kts 210°
2026-05-08 07:12 -52.74208 -70.55437 32397 ft 454 kts 210°
2026-05-08 07:12 -52.79345 -70.61299 32394 ft 453 kts 210°
2026-05-08 07:13 -52.84521 -70.67221 32396 ft 452 kts 210°
2026-05-08 07:13 -52.89722 -70.73188 32405 ft 452 kts 210°
2026-05-08 07:14 -52.94864 -70.79106 32403 ft 452 kts 210°
2026-05-08 07:14 -53.00041 -70.85080 32403 ft 451 kts 210°
2026-05-08 07:15 -53.05116 -70.91250 32403 ft 453 kts 212°
2026-05-08 07:15 -53.10103 -70.97625 32411 ft 453 kts 213°
2026-05-08 07:16 -53.15081 -71.04001 32398 ft 453 kts 212°
2026-05-08 07:16 -53.20076 -71.10370 32401 ft 453 kts 213°
2026-05-08 07:17 -53.25103 -71.16778 32405 ft 453 kts 212°
2026-05-08 07:17 -53.30094 -71.23150 32409 ft 453 kts 213°
2026-05-08 07:18 -53.35073 -71.29529 32404 ft 453 kts 213°
2026-05-08 07:18 -53.40078 -71.35962 32405 ft 453 kts 213°
2026-05-08 07:19 -53.45065 -71.42394 32407 ft 453 kts 213°
2026-05-08 07:19 -53.50075 -71.48871 32408 ft 453 kts 213°
2026-05-08 07:20 -53.55059 -71.55338 32399 ft 453 kts 213°
2026-05-08 07:20 -53.60020 -71.61791 32401 ft 454 kts 213°
2026-05-08 07:21 -53.65034 -71.68337 32403 ft 454 kts 214°
2026-05-08 07:21 -53.70031 -71.74881 32409 ft 454 kts 214°
2026-05-08 07:22 -53.75034 -71.81451 32405 ft 455 kts 214°
2026-05-08 07:22 -53.80013 -71.88008 32400 ft 454 kts 214°
2026-05-08 07:23 -53.84975 -71.94567 32403 ft 455 kts 214°
2026-05-08 07:23 -53.89971 -72.01190 32402 ft 455 kts 214°
2026-05-08 07:24 -53.94931 -72.07785 32403 ft 455 kts 214°
2026-05-08 07:24 -53.99904 -72.14417 32411 ft 455 kts 214°
2026-05-08 07:25 -54.04902 -72.21106 32410 ft 455 kts 214°
2026-05-08 07:26 -54.12318 -72.31067 32399 ft 455 kts 214°
2026-05-08 07:26 -54.17281 -72.37760 32403 ft 455 kts 215°
2026-05-08 07:27 -54.22248 -72.44477 32411 ft 456 kts 215°
2026-05-08 07:27 -54.27226 -72.51234 32402 ft 456 kts 215°
2026-05-08 07:28 -54.32170 -72.57966 32395 ft 456 kts 216°
2026-05-08 07:28 -54.37164 -72.64786 32406 ft 456 kts 216°
2026-05-08 07:29 -54.42121 -72.71580 32404 ft 457 kts 216°
2026-05-08 07:29 -54.47094 -72.78413 32405 ft 457 kts 216°
2026-05-08 07:30 -54.52070 -72.85270 32403 ft 458 kts 217°
2026-05-08 07:30 -54.56999 -72.92091 32406 ft 458 kts 217°
2026-05-08 07:31 -54.61991 -72.99022 32403 ft 458 kts 217°
2026-05-08 07:31 -54.66920 -73.05882 32403 ft 458 kts 217°
2026-05-08 07:32 -54.71877 -73.12808 32405 ft 458 kts 217°
2026-05-08 07:32 -54.76843 -73.19766 32404 ft 459 kts 218°
2026-05-08 07:33 -54.81798 -73.26732 32403 ft 459 kts 218°
2026-05-08 07:33 -54.85926 -73.32554 32405 ft 459 kts 218°
2026-05-08 07:34 -54.90853 -73.39522 32404 ft 459 kts 218°
2026-05-08 07:34 -54.96620 -73.47707 32406 ft 459 kts 218°
2026-05-08 07:35 -55.00740 -73.53574 32404 ft 459 kts 218°
2026-05-08 07:35 -55.05702 -73.60660 32405 ft 459 kts 218°
2026-05-08 07:36 -55.10647 -73.67747 32403 ft 460 kts 219°
2026-05-08 07:36 -55.15567 -73.74822 32384 ft 461 kts 219°
2026-05-08 07:37 -55.20514 -73.81958 32387 ft 461 kts 219°
2026-05-08 07:37 -55.25473 -73.89135 32388 ft 462 kts 219°
2026-05-08 07:38 -55.30429 -73.96332 32385 ft 462 kts 219°
2026-05-08 07:38 -55.35384 -74.03551 32387 ft 463 kts 220°
2026-05-08 07:39 -55.40295 -74.10732 32386 ft 463 kts 220°
2026-05-08 07:39 -55.45272 -74.18033 32387 ft 463 kts 220°
2026-05-08 07:40 -55.50195 -74.25277 32386 ft 463 kts 220°
2026-05-08 07:40 -55.55139 -74.32582 32388 ft 464 kts 220°
2026-05-08 07:41 -55.60094 -74.39925 32386 ft 464 kts 220°
2026-05-08 07:41 -55.65012 -74.47237 32387 ft 463 kts 220°
2026-05-08 07:42 -55.69934 -74.54578 32386 ft 463 kts 221°
2026-05-08 07:42 -55.74891 -74.62002 32384 ft 464 kts 221°
2026-05-08 07:43 -55.79786 -74.69357 32377 ft 464 kts 221°
2026-05-08 07:43 -55.84730 -74.76811 32377 ft 464 kts 221°
2026-05-08 07:44 -55.89629 -74.84220 32378 ft 464 kts 221°
2026-05-08 07:44 -55.94556 -74.91701 32378 ft 464 kts 221°
2026-05-08 07:45 -55.99480 -74.99179 32380 ft 465 kts 220°
2026-05-08 07:45 -56.04729 -75.05873 32382 ft 467 kts 216°
2026-05-08 07:46 -56.10171 -75.12362 32376 ft 468 kts 216°
2026-05-08 07:46 -56.15526 -75.18790 32374 ft 468 kts 216°
2026-05-08 07:47 -56.20973 -75.25397 32379 ft 468 kts 216°
2026-05-08 07:47 -56.26349 -75.31969 32377 ft 468 kts 216°
2026-05-08 07:48 -56.31704 -75.38539 32377 ft 468 kts 216°
2026-05-08 07:48 -56.37078 -75.45153 32378 ft 469 kts 216°
2026-05-08 07:49 -56.42458 -75.51796 32372 ft 469 kts 217°
2026-05-08 07:49 -56.47869 -75.58500 32367 ft 469 kts 217°
2026-05-08 07:50 -56.53215 -75.65148 32370 ft 469 kts 217°
2026-05-08 07:50 -56.58600 -75.71867 32367 ft 469 kts 217°
2026-05-08 07:51 -56.63946 -75.78563 32369 ft 468 kts 217°
2026-05-08 07:51 -56.69340 -75.85339 32369 ft 469 kts 217°
2026-05-08 07:52 -56.74698 -75.92096 32368 ft 469 kts 217°
2026-05-08 07:52 -56.80023 -75.98838 32368 ft 468 kts 217°
2026-05-08 07:53 -56.85382 -76.05645 32371 ft 465 kts 217°
2026-05-08 07:53 -56.90683 -76.12397 32365 ft 463 kts 217°
2026-05-08 07:54 -56.95966 -76.19152 32370 ft 463 kts 217°
2026-05-08 07:54 -57.01245 -76.25931 32368 ft 463 kts 218°
2026-05-08 07:55 -57.06480 -76.32674 32369 ft 463 kts 218°
2026-05-08 07:55 -57.11752 -76.39485 32367 ft 462 kts 218°
2026-05-08 07:56 -57.16987 -76.46280 32357 ft 462 kts 218°
2026-05-08 07:56 -57.22240 -76.53119 32365 ft 461 kts 218°
2026-05-08 07:57 -57.27476 -76.59960 32354 ft 460 kts 218°
2026-05-08 07:57 -57.32685 -76.66787 32352 ft 460 kts 218°
2026-05-08 07:58 -57.37923 -76.73678 32367 ft 459 kts 218°
2026-05-08 07:58 -57.43140 -76.80568 32360 ft 458 kts 218°
2026-05-08 07:59 -57.48316 -76.87426 32361 ft 458 kts 218°
2026-05-08 07:59 -57.53472 -76.94283 32362 ft 457 kts 218°
2026-05-08 08:00 -57.58667 -77.01220 32349 ft 456 kts 218°
2026-05-08 08:00 -57.63768 -77.08052 32351 ft 455 kts 218°
2026-05-08 08:01 -57.68931 -77.14995 32362 ft 454 kts 218°
2026-05-08 08:01 -57.74044 -77.21888 32360 ft 453 kts 218°
2026-05-08 08:02 -57.79123 -77.28762 32361 ft 452 kts 218°
2026-05-08 08:02 -57.84213 -77.35677 32353 ft 451 kts 218°
2026-05-08 08:03 -57.89272 -77.42576 32351 ft 450 kts 218°
2026-05-08 08:03 -57.94331 -77.49498 32347 ft 450 kts 218°
2026-05-08 08:04 -57.99387 -77.56441 32349 ft 449 kts 218°
2026-05-08 08:04 -58.04440 -77.63405 32349 ft 449 kts 218°
2026-05-08 08:05 -58.09454 -77.70340 32350 ft 449 kts 218°
2026-05-08 08:05 -58.14514 -77.77362 32353 ft 448 kts 218°
2026-05-08 08:06 -58.19519 -77.84334 32348 ft 447 kts 218°
2026-05-08 08:06 -58.24518 -77.91321 32349 ft 447 kts 218°
2026-05-08 08:07 -58.29532 -77.98358 32347 ft 447 kts 218°
2026-05-08 08:07 -58.34537 -78.05407 32348 ft 447 kts 218°
2026-05-08 08:08 -58.39533 -78.12464 32346 ft 448 kts 218°
2026-05-08 08:08 -58.44519 -78.19537 32348 ft 447 kts 218°
2026-05-08 08:09 -58.49507 -78.26635 32349 ft 447 kts 219°
2026-05-08 08:09 -58.54514 -78.33790 32342 ft 447 kts 219°
2026-05-08 08:10 -58.59466 -78.40889 32337 ft 447 kts 219°
2026-05-08 08:10 -58.64454 -78.48066 32341 ft 447 kts 219°
2026-05-08 08:11 -58.69415 -78.55233 32342 ft 447 kts 219°
2026-05-08 08:11 -58.74381 -78.62431 32342 ft 447 kts 220°
2026-05-08 08:12 -58.79355 -78.69667 32340 ft 446 kts 220°
2026-05-08 08:12 -58.84296 -78.76884 32336 ft 446 kts 220°
2026-05-08 08:13 -58.89221 -78.84105 32343 ft 446 kts 220°
2026-05-08 08:13 -58.94167 -78.91380 32340 ft 446 kts 220°
2026-05-08 08:14 -58.99099 -78.98661 32333 ft 445 kts 221°